ATLAS 5 CENTAUR DEB, 53520

Orbit data source: Space-Track

ATLAS 5 CENTAUR DEB, 53520 is space debris in HEO originally from a launch on Wed, 17 Oct 2018 UTC launched from the Air Force Eastern Test Range (AFETR). Debris objects in space refer to the collection of defunct objects orbiting the Earth. Examples of debris include non-operational satellites, rocket bodies, and fragments generated from explosions, collisions, or faulty payload assembly.

Loading next visibility...
Identifier
53520, 2018-079HB
Orbit
HEO
Country
Flag of USUS
Related business
Flag of USUnited Launch Alliance/Lockheed Martin (US)
Manufacturer
ULA Decatur
Mission
Spacecraft
Bus & Motor
Unknown
Mass
Unknown
Launch date (UTC)
2018-10-17 (8 years ago)
Launch vehicle
Unknown
Launch site
Air Force Eastern Test Range (AFETR)
Object type
Payload
Rocket body
Debris
Shape & HBR
Unknown shape, 1.1 m
Radar Cross Section
Medium (>0.1 m² and <1 m²)

Expand to show TLE details & history
Last TLE update: 3 days ago

TLE from 3 days ago
0 ATLAS 5 CENTAUR DEB
1 53520U 18079HB  26205.43292064 -.00000167  00000-0  00000-0 0  9990
2 53520  13.6188  32.6583 4673597 315.0150  15.3274  1.80104874 31208
Epoch: 2026-07-24T10:23Z
TLE epoch observation values (Epoch: 2026-07-24T10:23:24.343Z)
Latitude
0.00004°
Longitude
-65.33139°
Altitude
10,402.175 km
Speed
5.791 km/s
True Right ascension
02h 10m 43s
True Declination
0° 00' 00"
Sunlit
Object was in daylight at epoch
Visualization orbit readout
Latitude
Unknown
Longitude
Unknown
Altitude
Unknown
Speed
Unknown
Apparent Right ascension
Unknown
Apparent Declination
Unknown
Sunlit
N/A
Visualization observer readout
Local Sidereal Time
09:20:05
Azimuth
Unknown
Elevation
Unknown
Doppler factor
Unknown
Orbital elements
Apogee altitude
35,496.677 km
Perigee altitude
8,822.099 km
Semi-major axis
28,537.525 km
Eccentricity
0.46736
Inclination
13.6188°
RAAN
32.6583°
Arg. of periapsis
315.015°
True anomaly
44.70284°
Mean anomaly
15.3274°
Eccentric anomaly
27.82758°
Mean motion
0.45021 °/min
Orbital period
799.62 mins
BSTAR
0
Loading maneuver chart data...
Computing Atmospheric mass density...

Documentation

Showing up to 5 results
|